This is the latest recevied weather packets stored in our database for station/object KE2HEH. If no packets are shown the sender has not sent any weather packets the latest 10 day(s).
| Time | Temp. | Humidity | Pressure | Rain* | Wind** | Luminosity | Snow |
|---|---|---|---|---|---|---|---|
| 1777927568 | 13.33° C | 81% | 1011.2 hPa | 0 mm | - | 292 W/m² | - |
| 1777927267 | 13.33° C | 81% | 1011.3 hPa | 0 mm | - | 298 W/m² | - |
| 1777926965 | 13.33° C | 81% | 1011.2 hPa | 0 mm | - | 316 W/m² | - |
| 1777926662 | 13.33° C | 81% | 1011.1 hPa | 0 mm | - | 308 W/m² | - |
| 1777926357 | 13.33° C | 80% | 1011.3 hPa | 0 mm | - | 336 W/m² | - |
| 1777926054 | 13.89° C | 80% | 1011.1 hPa | 0 mm | - | 361 W/m² | - |
| 1777925751 | 13.89° C | 80% | 1011.3 hPa | 0 mm | - | 362 W/m² | - |
| 1777925449 | 13.89° C | 80% | 1011.4 hPa | 0 mm | - | 389 W/m² | - |
| 1777925145 | 13.89° C | 80% | 1011.3 hPa | 0 mm | - | 388 W/m² | - |
| 1777924842 | 13.89° C | 80% | 1011.3 hPa | 0 mm | - | 395 W/m² | - |
| 1777924538 | 13.89° C | 80% | 1011.4 hPa | 0 mm | - | 403 W/m² | - |
| 1777924235 | 13.89° C | 80% | 1011.6 hPa | 0 mm | - | 420 W/m² | - |
| 1777923931 | 13.89° C | 80% | 1011.5 hPa | 0 mm | - | 424 W/m² | - |
| 1777923627 | 13.89° C | 80% | 1011.6 hPa | 0 mm | - | 440 W/m² | - |
| 1777923324 | 13.89° C | 80% | 1011.5 hPa | 0 mm | - | 442 W/m² | - |
| 1777923022 | 13.89° C | 80% | 1011.7 hPa | 0 mm | - | 454 W/m² | - |
| 1777922720 | 13.89° C | 80% | 1012 hPa | 0 mm | - | 443 W/m² | - |
| 1777922418 | 13.89° C | 80% | 1011.7 hPa | 0 mm | - | 473 W/m² | - |
| 1777922116 | 13.89° C | 80% | 1011.8 hPa | 0 mm | - | 474 W/m² | - |
| 1777921812 | 13.89° C | 80% | 1012.1 hPa | 0 mm | - | 492 W/m² | - |
| 1777921508 | 13.89° C | 80% | 1012.1 hPa | 0 mm | - | 497 W/m² | - |
| 1777921204 | 13.89° C | 80% | 1012.2 hPa | 0 mm | - | 501 W/m² | - |
| 1777920901 | 13.89° C | 80% | 1012.2 hPa | 0 mm | - | 499 W/m² | - |
| 1777920597 | 13.89° C | 80% | 1012.2 hPa | 0 mm | - | 511 W/m² | - |
| 1777920293 | 13.89° C | 79% | 1012.3 hPa | 0 mm | - | 524 W/m² | - |
* Rain latest hour (hover to see other rain measurements)
** Current wind speed in m/s (hover to see current wind gust speed)